Weather History for Limon, CO

Change the Weather History Date:

Monday, November 12, 2012

  Actual Average Record
Temperature  
Mean Temperature 19 °F -  
Max Temperature 42 °F - 75 °F (1999)
Min Temperature -5 °F - -13 °F (2014)
Degree Days  
Heating Degree Days 46    
Month to date heating degree days 301  
Cooling Degree Days 0    
Month to date cooling degree days 0  
Moisture  
Dew Point 8 °F    
Average Humidity 70    
Maximum Humidity 92    
Minimum Humidity 38    
Precipitation  
Precipitation 0.00 in - 0.15 in (2005)
Month to date precipitation 0.22  
Year to date precipitation 9.51  
Sea Level Pressure  
Sea Level Pressure 30.44 in    
Wind  
Wind Speed 3 mph (NE)    
Max Wind Speed 10 mph    
Max Gust Speed 12 mph    
Visibility 10 miles    
Events      
T = Trace of Precipitation, MM = Missing Value Source: NWS Daily Summary

Daily Weather History Graph

Daily Weather History Graph

Search for Another Location

Airport:

Trip Planner

Search our weather history database for the weather conditions in past years. The results will help you decide how hot, cold, wet, or windy it might be!

Date:

Astronomy

Nov. 12, 2012 Rise Set
Actual Time 6:35 AM MST 4:41 PM MST
Civil Twilight 6:06 AM MST 5:10 PM MST
Nautical Twilight 5:34 AM MST 5:42 PM MST
Astronomical Twilight 5:03 AM MST 6:14 PM MST
Moon 5:03 AM MST (11/12) 3:48 PM MST (11/12)
Length of Visible Light 11h 03m
Length of Day
10h 06m
Waning Crescent, 2% of the Moon is Illuminated
Nov 12
Waning Crescent
Nov 13
New
Nov 20
First Quarter
Nov 28
Full
Dec 6
Last Quarter

Hourly Weather History & Observations

Time (MST) Temp. Windchill Dew Point Humidity Pressure Visibility Wind Dir Wind Speed Gust Speed Precip Events Conditions
12:55 AM -0.9 °F -11.0 °F -5.1 °F 83% 30.40 in 10.0 mi North 4.6 mph - N/A   Clear
1:55 AM -0.0 °F -7.9 °F -5.1 °F 79% 30.40 in 10.0 mi North 3.5 mph - N/A   Clear
2:55 AM -0.0 °F - -5.1 °F 79% 30.40 in 10.0 mi Calm Calm - N/A   Clear
3:55 AM -2.9 °F -13.3 °F -8.0 °F 79% 30.44 in 10.0 mi NNW 4.6 mph - N/A   Clear
4:55 AM -4.0 °F -16.3 °F -8.0 °F 83% 30.50 in 10.0 mi NNW 5.8 mph - N/A   Clear
5:55 AM -4.0 °F - -9.0 °F 79% 30.50 in 10.0 mi Calm Calm - N/A   Clear
6:55 AM -0.9 °F -14.1 °F -6.0 °F 79% 30.49 in 10.0 mi North 6.9 mph - N/A   Clear
7:55 AM 10.9 °F - 1.9 °F 67% 30.49 in 10.0 mi Calm Calm - N/A   Clear
8:55 AM 21.0 °F 12.4 °F 7.0 °F 55% 30.48 in 10.0 mi NNE 6.9 mph - N/A   Clear
9:55 AM 26.1 °F - 9.0 °F 49% 30.49 in 10.0 mi Calm Calm - N/A   Clear
10:55 AM 30.0 °F 26.5 °F 10.9 °F 45% 30.48 in 10.0 mi South 3.5 mph - N/A   Clear
11:55 AM 35.1 °F 32.2 °F 15.1 °F 44% 30.45 in 10.0 mi SE 3.5 mph - N/A   Clear
12:55 PM 36.0 °F 31.1 °F 19.0 °F 50% 30.42 in 10.0 mi South 5.8 mph - N/A   Clear
1:55 PM 39.0 °F 34.0 °F 21.0 °F 49% 30.41 in 10.0 mi South 6.9 mph - N/A   Clear
2:55 PM 42.1 °F 38.4 °F 18.0 °F 38% 30.40 in 10.0 mi SSE 5.8 mph - N/A   Clear
3:55 PM 41.0 °F 37.1 °F 18.0 °F 40% 30.41 in 10.0 mi SE 5.8 mph - N/A   Clear
5:55 PM 27.0 °F - 19.9 °F 75% 30.47 in 10.0 mi Calm Calm - N/A   Clear
6:55 PM 19.0 °F - 16.0 °F 88% 30.51 in 10.0 mi Calm Calm - N/A   Clear
7:55 PM 19.0 °F - 16.0 °F 88% 30.46 in 10.0 mi Calm Calm - N/A   Clear
8:55 PM 17.1 °F - 15.1 °F 92% 30.43 in 10.0 mi Calm Calm - N/A   Clear
9:55 PM 18.0 °F - 15.1 °F 88% 30.40 in 10.0 mi Calm Calm - N/A   Clear
10:55 PM 17.1 °F - 12.9 °F 84% 30.37 in 10.0 mi Calm Calm - N/A   Clear
11:55 PM 19.9 °F 14.9 °F 17.1 °F 89% 30.32 in 10.0 mi North 3.5 mph - N/A   Clear